• In Hungary
  • List of Countries
  • For 7 days
  • Water Temperature
  • Satellite Maps
  • Weather Map
  • News
  • Weather Widgets
  • user-avatar
    Login

    Hourly Weather Hlinsko

    Today, 19 February, Monday

    Time Temperature Precipitation Wind Pressure Humidity
    00:00 -6°C° 0 mm 1 mps 712 mmHg 85%
    01:00 -6°C° 0 mm 1 mps 711 mmHg 85%
    02:00 -6°C° 0 mm 1 mps 711 mmHg 85%
    03:00 -6°C° 0 mm 1 mps 711 mmHg 85%
    04:00 -6°C° 0 mm 1 mps 710 mmHg 85%
    05:00 -6°C° 0 mm 1 mps 710 mmHg 85%
    06:00 -7°C° 0 mm 1 mps 710 mmHg 85%
    07:00 -7°C° 0 mm 1 mps 709 mmHg 85%
    08:00 -4°C° 0 mm 1 mps 709 mmHg 80%
    09:00 -5°C° 0 mm 2 mps 709 mmHg 76%
    10:00 -4°C° 0 mm 2 mps 709 mmHg 72%
    11:00 -3°C° 0 mm 2 mps 709 mmHg 71%
    12:00 -2°C° 0 mm 3 mps 709 mmHg 70%
    13:00 -2°C° 0 mm 3 mps 709 mmHg 69%
    14:00 -2°C° 0 mm 3 mps 708 mmHg 72%
    15:00 -2°C° 0 mm 3 mps 708 mmHg 74%
    16:00 -2°C° 0 mm 3 mps 707 mmHg 77%
    17:00 -3°C° 0 mm 2 mps 707 mmHg 80%
    18:00 -4°C° 0 mm 2 mps 707 mmHg 84%
    19:00 -5°C° 0 mm 2 mps 706 mmHg 88%
    20:00 -6°C° 0 mm 2 mps 706 mmHg 88%
    21:00 -6°C° 0 mm 2 mps 706 mmHg 88%
    22:00 -6°C° 0 mm 2 mps 706 mmHg 87%
    23:00 -6°C° 0 mm 2 mps 706 mmHg 86%

    Tomorrow, 20 February, Tuesday

    Time Temperature Precipitation Wind Pressure Humidity
    00:00 -6°C° 0 mm 2 mps 706 mmHg 86%
    01:00 -6°C° 0 mm 2 mps 706 mmHg 85%
    02:00 -6°C° 0 mm 2 mps 705 mmHg 84%
    03:00 -6°C° 0 mm 2 mps 705 mmHg 83%
    04:00 -6°C° 0 mm 2 mps 705 mmHg 83%
    05:00 -6°C° 0 mm 2 mps 705 mmHg 82%
    06:00 -4°C° 0 mm 1 mps 705 mmHg 80%
    07:00 -4°C° 0 mm 1 mps 705 mmHg 79%
    08:00 -5°C° 0.1 mm 2 mps 705 mmHg 77%
    09:00 -4°C° 0.1 mm 2 mps 705 mmHg 75%
    10:00 -3°C° 0.1 mm 2 mps 705 mmHg 73%
    11:00 -2°C° 0.1 mm 2 mps 705 mmHg 70%
    12:00 -2°C° 0.1 mm 2 mps 705 mmHg 68%
    13:00 -1°C° 0.1 mm 2 mps 705 mmHg 65%
    14:00 -1°C° 0 mm 2 mps 705 mmHg 67%
    15:00 -1°C° 0 mm 2 mps 705 mmHg 68%
    16:00 -1°C° 0 mm 2 mps 705 mmHg 70%
    17:00 -2°C° 0 mm 2 mps 705 mmHg 73%
    18:00 -3°C° 0 mm 2 mps 705 mmHg 76%
    19:00 -4°C° 0 mm 2 mps 705 mmHg 79%
    20:00 -4°C° 0 mm 2 mps 705 mmHg 79%
    21:00 -4°C° 0 mm 2 mps 706 mmHg 79%
    22:00 -5°C° 0 mm 2 mps 706 mmHg 79%
    23:00 -5°C° 0 mm 2 mps 706 mmHg 79%

    Day after tomorrow, 21 February, Wednesday

    Time Temperature Precipitation Wind Pressure Humidity
    00:00 -5°C° 0 mm 2 mps 706 mmHg 79%
    01:00 -5°C° 0 mm 2 mps 706 mmHg 79%
    02:00 -5°C° 0 mm 2 mps 706 mmHg 79%
    03:00 -6°C° 0 mm 2 mps 706 mmHg 79%
    04:00 -6°C° 0 mm 2 mps 706 mmHg 79%
    05:00 -6°C° 0 mm 2 mps 706 mmHg 80%
    06:00 -6°C° 0 mm 2 mps 706 mmHg 81%
    07:00 -6°C° 0 mm 2 mps 706 mmHg 82%
    08:00 -6°C° 0 mm 3 mps 707 mmHg 78%
    09:00 -5°C° 0 mm 3 mps 707 mmHg 74%
    10:00 -4°C° 0 mm 3 mps 707 mmHg 70%
    11:00 -4°C° 0 mm 4 mps 707 mmHg 68%
    12:00 -3°C° 0 mm 4 mps 707 mmHg 65%
    13:00 -2°C° 0 mm 5 mps 707 mmHg 63%
    14:00 -4°C° 0 mm 5 mps 707 mmHg 63%
    15:00 -4°C° 0 mm 5 mps 707 mmHg 64%
    16:00 -4°C° 0 mm 5 mps 706 mmHg 64%
    17:00 -4°C° 0 mm 4 mps 706 mmHg 67%
    18:00 -5°C° 0 mm 4 mps 706 mmHg 70%
    19:00 -7°C° 0 mm 4 mps 706 mmHg 74%
    20:00 -7°C° 0 mm 4 mps 706 mmHg 74%
    21:00 -7°C° 0 mm 4 mps 706 mmHg 75%
    22:00 -7°C° 0 mm 4 mps 706 mmHg 75%
    23:00 -7°C° 0 mm 4 mps 706 mmHg 76%

    22 February, Thursday

    Time Temperature Precipitation Wind Pressure Humidity
    00:00 -8°C° 0 mm 4 mps 706 mmHg 77%
    01:00 -8°C° 0 mm 4 mps 706 mmHg 78%
    02:00 -8°C° 0 mm 4 mps 706 mmHg 78%
    03:00 -8°C° 0 mm 4 mps 705 mmHg 78%
    04:00 -8°C° 0 mm 4 mps 705 mmHg 79%
    05:00 -8°C° 0 mm 5 mps 705 mmHg 78%
    06:00 -8°C° 0 mm 5 mps 705 mmHg 78%
    07:00 -8°C° 0 mm 5 mps 705 mmHg 78%
    08:00 -8°C° 0 mm 5 mps 705 mmHg 74%
    09:00 -8°C° 0 mm 6 mps 705 mmHg 71%
    10:00 -6°C° 0 mm 6 mps 705 mmHg 68%
    11:00 -6°C° 0 mm 6 mps 705 mmHg 67%
    12:00 -5°C° 0 mm 6 mps 705 mmHg 65%
    13:00 -5°C° 0 mm 6 mps 705 mmHg 63%
    14:00 -5°C° 0 mm 6 mps 704 mmHg 65%
    15:00 -5°C° 0 mm 6 mps 704 mmHg 66%
    16:00 -5°C° 0 mm 6 mps 704 mmHg 68%
    17:00 -6°C° 0.1 mm 6 mps 704 mmHg 70%
    18:00 -7°C° 0.1 mm 5 mps 704 mmHg 73%
    19:00 -7°C° 0.1 mm 5 mps 704 mmHg 76%
    20:00 -7°C° 0.1 mm 5 mps 704 mmHg 76%
    21:00 -8°C° 0.1 mm 5 mps 704 mmHg 76%
    22:00 -8°C° 0.1 mm 5 mps 704 mmHg 76%
    23:00 -8°C° 0.1 mm 5 mps 704 mmHg 76%

    23 February, Friday

    Time Temperature Precipitation Wind Pressure Humidity
    00:00 -8°C° 0.1 mm 5 mps 703 mmHg 77%
    01:00 -8°C° 0.1 mm 5 mps 703 mmHg 77%
    02:00 -8°C° 0 mm 5 mps 703 mmHg 77%
    03:00 -8°C° 0 mm 5 mps 702 mmHg 77%
    04:00 -10°C° 0 mm 5 mps 702 mmHg 77%
    05:00 -10°C° 0 mm 5 mps 702 mmHg 77%
    06:00 -10°C° 0 mm 5 mps 702 mmHg 76%
    07:00 -11°C° 0 mm 5 mps 702 mmHg 75%
    08:00 -10°C° 0 mm 5 mps 702 mmHg 73%
    09:00 -10°C° 0 mm 5 mps 702 mmHg 70%
    10:00 -10°C° 0 mm 5 mps 703 mmHg 68%
    11:00 -8°C° 0 mm 5 mps 702 mmHg 65%
    12:00 -9°C° 0 mm 6 mps 702 mmHg 62%
    13:00 -9°C° 0 mm 6 mps 702 mmHg 60%
    14:00 -9°C° 0 mm 6 mps 702 mmHg 58%
    15:00 -9°C° 0 mm 6 mps 702 mmHg 57%
    16:00 -10°C° 0 mm 6 mps 702 mmHg 56%
    17:00 -11°C° 0 mm 6 mps 702 mmHg 56%
    18:00 -11°C° 0 mm 5 mps 702 mmHg 57%
    19:00 -12°C° 0 mm 5 mps 702 mmHg 57%
    20:00 -13°C° 0 mm 5 mps 702 mmHg 55%
    21:00 -13°C° 0 mm 5 mps 702 mmHg 54%
    22:00 -13°C° 0 mm 5 mps 702 mmHg 52%
    23:00 -14°C° 0 mm 5 mps 702 mmHg 53%

    24 February, Saturday

    Time Temperature Precipitation Wind Pressure Humidity
    00:00 -14°C° 0 mm 4 mps 702 mmHg 54%
    01:00 -14°C° 0 mm 4 mps 702 mmHg 55%
    02:00 -14°C° 0 mm 4 mps 703 mmHg 58%
    03:00 -14°C° 0 mm 4 mps 703 mmHg 60%
    04:00 -15°C° 0 mm 4 mps 703 mmHg 62%
    05:00 -15°C° 0 mm 4 mps 703 mmHg 64%
    06:00 -14°C° 0 mm 3 mps 703 mmHg 66%
    07:00 -14°C° 0 mm 3 mps 704 mmHg 68%
    08:00 -13°C° 0 mm 3 mps 704 mmHg 62%
    09:00 -14°C° 0 mm 4 mps 704 mmHg 56%
    10:00 -12°C° 0 mm 4 mps 705 mmHg 50%
    11:00 -11°C° 0 mm 4 mps 704 mmHg 46%
    12:00 -11°C° 0 mm 4 mps 704 mmHg 42%
    13:00 -10°C° 0 mm 4 mps 704 mmHg 38%
    14:00 -10°C° 0 mm 4 mps 704 mmHg 39%
    15:00 -10°C° 0 mm 4 mps 704 mmHg 40%
    16:00 -11°C° 0 mm 4 mps 704 mmHg 41%
    17:00 -10°C° 0 mm 3 mps 704 mmHg 45%
    18:00 -10°C° 0 mm 2 mps 704 mmHg 48%
    19:00 -10°C° 0 mm 2 mps 704 mmHg 52%
    20:00 -10°C° 0 mm 2 mps 704 mmHg 55%
    21:00 -10°C° 0 mm 2 mps 704 mmHg 57%
    22:00 -12°C° 0 mm 2 mps 704 mmHg 60%
    23:00 -12°C° 0 mm 2 mps 704 mmHg 63%
    Show more